Flag for Germany Weather past 2 weeks in Bitburg, Rhineland-Palatinate, Germany

Now
76 °F

Scattered clouds.


Feels Like: 78 °F
Forecast: 60 / 78 °F
Wind: 8 mph from East

Location: Spangdahlem

Current Time: Jul 23, 2014 at 12:19:27 PM

Latest Report: Jul 23, 2014 at 10:58 AM


Visibility: N/A

Pressure: 29.99 "Hg

Humidity: 63%

Dew point: 62 °F

Location of BitburgLocation

Historic Weather in Bitburg — Graph

°F

Bitburg temperature yesterday

Maximum temperature yesterday: 79 °F (at 4:58 PM)
Minimum temperature yesterday: 64 °F (at 4:58 AM)
Average temperature yesterday: 69 °F

Past Weeks' High & Low Weather Summary

 TemperatureHumidityPressure
High88 °F (Jul 19, 2:58 PM)100% (Jul 9, 7:58 PM)30.22 "Hg (Jul 9, 7:58 PM)
Low50 °F (Jul 9, 7:59 AM)33% (Jul 18, 3:58 PM)29.59 "Hg (Jul 16, 2:58 PM)
Average66 °F76%29.92 "Hg
* Reported Jul 8 10:01 AM — Jul 23 10:58 AM, Bitburg, Weather by CustomWeather, © 2014

Note: Actual official high and low records may vary slightly from our data, if they occured in-between our weather recording intervals... More about our weather records

Advertising

Bitburg weather history for previous 24 hours

 ConditionsComfort  
Time TempWeatherWind HumidityBarometerVisibility
10:58 AM
Jul 23
76 °FScattered clouds.8 mph63%29.99 "HgN/A
9:58 AM70 °FPartly sunny.13 mph72%30.00 "HgN/A
7:58 AM68 °FPassing clouds.7 mph78%30.00 "HgN/A
6:58 AM65 °FSunny.6 mph82%30.00 "HgN/A
5:58 AM63 °FPassing clouds.6 mph90%30.00 "HgN/A
4:58 AM64 °FClear.5 mph88%30.00 "HgN/A
3:58 AM64 °FClear.3 mph88%30.00 "HgN/A
2:58 AM66 °FClear.3 mph85%30.01 "HgN/A
1:58 AM67 °FClear.8 mph82%30.02 "HgN/A
6:58 PM
Jul 22
77 °FSunny.13 mph65%29.97 "HgN/A
5:58 PM77 °FPassing clouds.13 mph62%29.97 "HgN/A
4:58 PM79 °FSunny.9 mph61%29.97 "HgN/A
3:58 PM77 °FScattered clouds.8 mph69%29.97 "HgN/A
2:58 PM77 °FSunny.10 mph69%29.97 "HgN/A
1:58 PM75 °FPassing clouds.7 mph73%29.97 "HgN/A
12:58 PM73 °FPassing clouds.14 mph74%29.98 "HgN/A
Weather by CustomWeather, © 2014

See weather overviewHow to use our weather pages